Location: *
(46.4000°N, 12.6667°E)
Time: 02:07:56
(UTC+00:00)

STARLINK-1240 - Pass Details

Date: 09 April 2020
Orbit: 549 x 550 km, 53.0° (Epoch: 03 June)

Event Time Altitude Azimuth Distance (km) Brightness Sun altitude
Rises 18:34:11 0° 296° (WNW) 2,728 9.6 -8.2°
Reaches altitude 10° 18:36:31 10° 304° (NW) 1,833 7.8 -8.6°
Maximum altitude 18:40:28 41° 15° (NNE) 815 4.5 -9.2°
Enters shadow 18:44:18 11° 86° (E) 1,784 5.7 -9.8°
